{"data":{"norad_id":39250,"epoch":"2026-09-20T03:21:09.442368Z","epoch_age_seconds":64762,"freshness":"FRESH","line1":"1 39250U 13048B   26263.13969262 -.00000057  00000+0 -48228-3 0  9992","line2":"2 39250  82.4813 285.0926 0019872  42.2332 318.0274 12.43032777590748","mean_motion":12.43032777,"eccentricity":0.0019872,"inclination_deg":82.4813,"raan_deg":285.0926,"arg_perigee_deg":42.2332,"mean_anomaly_deg":318.0274,"bstar":-0.00048228,"rev_number":59074,"period_min":115.84569825064,"perigee_km":1478.1299556361,"apogee_km":1509.4160748005,"semimajor_km":7871.9100152183,"source":"CELESTRAK","updated_at":"2026-09-20T09:00:13.920797Z"}}